Regional Weather Roundup
Issued by NWS

Home | Current Version | Previous Version | Text Only | Print | Product List | Glossary On
Versions: 1 2 3 4 5 6 7 8 9 10 11 12 13 14 15 16 17 18 19 20 21 22 23 24 25 26 27 28 29 30 31 32 33 34 35 36 37 38 39 40 41 42 43 44 45 46 47 48 49 50
148
ASUS45 KBOU 031107
RWRCO

WEATHER ROUNDUP FOR COLORADO
NATIONAL WEATHER SERVICE DENVER/BOULDER CO
500 AM MDT TUE MAY 03 2016

NOTE: "FAIR" INDICATES FEW OR NO CLOUDS BELOW 12000 FEET WITH NO
SIGNIFICANT WEATHER AND/OR OBSTRUCTIONS TO VISIBILITY.

COZ001>005-013-030-031-031200-
...NORTHWEST COLORADO...

CITY           SKY/WX    TMP DP  RH WIND       PRES   REMARKS
CRAIG          FAIR      26  22  84 CALM      30.26R
HAYDEN         FAIR      32  21  64 E7        30.25R WCI  26
MEEKER         FAIR      30  24  78 CALM      30.26R
MOUNT WERNER   NOT AVBL
STEAMBOAT SPGS FAIR      30  22  71 CALM      30.26R
WALDEN         FAIR      21  18  86 E5        30.29S WCI  15
$$

COZ006>008-011-031200-
...WEST CENTRAL VALLEYS...

CITY           SKY/WX    TMP DP  RH WIND       PRES   REMARKS
GRAND JUNCTION FAIR      38  35  89 NE3       30.18R
MONTROSE       FAIR      39  30  70 SE8       30.23R
EAGLE          FAIR      30  27  86 CALM      30.29R
RIFLE          FAIR      36  29  75 SE3       30.22R
DELTA          NOT AVBL
NUCLA          NOT AVBL
$$

COZ017>023-064>068-031200-
...SOUTHWEST COLORADO...

CITY           SKY/WX    TMP DP  RH WIND       PRES   REMARKS
DURANGO        FAIR      32  29  88 N5        30.20S WCI  27
CORTEZ         FAIR      31  28  89 E5        30.20R WCI  26
PAGOSA SPRINGS FAIR      31  31  99 CALM      30.23S
TELLURIDE      FAIR      30  26  85 SE5       30.30S WCI  25
WOLF CREEK PAS FAIR      23  19  86 NE6       30.35S WCI  16
$$

COZ009-010-012-014-032>034-037-058>063-031200-
...CENTRAL COLORADO...

CITY           SKY/WX    TMP DP  RH WIND       PRES   REMARKS
ASPEN          FAIR      31  23  72 S5        30.25S WCI  26
BUENA VISTA    FAIR      32  23  70 NW5       30.23S WCI  27
COPPER MTN     NOT AVBL
BERTHOUD PASS  FAIR      14   5  67 N20G30    30.30S HAZE    WCI  -3
COTTONWOOD PAS FAIR      34  21  60 W8        30.27S WCI  27
GUNNISON       FAIR      28  23  80 CALM      30.28S
KREMMLING      FAIR      23  19  86 CALM      30.29R
LEADVILLE      FAIR      24  16  71 NE8       30.28R WCI  15
MONARCH PASS   FAIR      23  19  86 MISG      30.41F
SALIDA         FAIR      33  27  78 W5        30.30S WCI  29
SUNLIGHT       FAIR      32  21  64 NW6         N/A  WCI  26
WILKERSON PASS FAIR      27  14  59 NE7       30.32R WCI  19
$$

COZ069>075-031200-
...SAN LUIS VALLEY/SANGRE DE CRISTO MOUNTAINS...

CITY           SKY/WX    TMP DP  RH WIND       PRES   REMARKS
ALAMOSA        FAIR      28  26  92 CALM      30.21R
LA VETA PASS   FAIR      30  27  86 MISG      30.26R
SAGUACHE       FAIR      34  28  80 NW12      30.22S WCI  25
$$

COZ035-036-038>040-031200-
...NORTHERN COLORADO FRONT RANGE...

CITY           SKY/WX    TMP DP  RH WIND       PRES   REMARKS
DENVER INTL AP FAIR      44  26  49 NW12      30.17R
DMNS CITY PARK   N/A     39  29  68 NE3G14    30.18S
AURORA         FAIR      39  28  66 W7        30.18S
FRONT RANGE AP NOT AVBL
ERIE MUNI ARPT FAIR      36  32  85 SW5       30.18R
BOULDER MUN AP FAIR      41  30  65 SW5       30.18S
CENTENNIAL     FAIR      39  27  62 W5        30.18R
BROOMFIELD     FAIR      41  28  60 W3        30.19R
FORT COLLINS   FAIR      39  28  65 NW7       30.18R
LONGMONT       FAIR      39  30  69 NW5       30.19R
$$

COZ041-046-047-076>085-087-088-031200-
...PIKES PEAK/PALMER DIVIDE AND SOUTHERN FOOTHILLS...

CITY           SKY/WX    TMP DP  RH WIND       PRES   REMARKS
COLO. SPRINGS  FAIR      44  25  47 N14       30.19R
A. F. ACADEMY  FAIR      32  25  74 N9        30.19R WCI  24
SCHRIEVER AFB  NOT AVBL
ELLICOTT       FAIR     N/A N/A N/A NE17G23   30.16R
FALCON         FAIR      38  26  62 N9        30.20R
FORT CARSON    MOCLDY    41  27  59 NW14      30.17R
LIMON          CLOUDY    39  32  76 NW9       30.14F
MONUMENT HILL  FAIR      32  27  80 NW7       30.21S WCI  26
TRINIDAD       FAIR      36  31  82 W13       30.14S
$$

COZ042>045-048>051-090-091-031200-
...NORTHEAST COLORADO...

CITY           SKY/WX    TMP DP  RH WIND       PRES   REMARKS
GREELEY ARPT   FAIR      41  30  65 NW13      30.15S
AKRON          FAIR      37  32  82 W15       30.08S
BURLINGTON     MOCLDY    42  35  76 W7        30.06F
WRAY           NOT AVBL
STERLING       FAIR      37  34  87 NW5       30.08R
HOLYOKE        NOT AVBL
FORT MORGAN    FAIR      38  32  79 W13       30.12R
$$

COZ086-089-092>099-031200-
...SOUTHEAST COLORADO...

CITY           SKY/WX    TMP DP  RH WIND       PRES   REMARKS
PUEBLO         CLOUDY    44  32  62 N9        30.15R
LA JUNTA       CLOUDY    47  35  63 NW7       30.12R
LAMAR          FAIR      44  36  73 W7        30.08R
SPRINGFIELD      N/A     47  36  65 W5        30.07R
$$




USA.gov is the U.S. government's official web portal to all federal, state and local government web resources and services.